• Processing (Info)

  • MPEC 2013-Q04 : 2013 PO43

    The following Minor Planet Electronic Circular may be linked-to from your own Web pages, but must not otherwise be redistributed electronically.

    A form allowing access to any MPEC is at the bottom of this page.


    Read MPEC 2013-Q03 Read MPEC 2013-Q05


    M.P.E.C. 2013-Q04                                Issued 2013 Aug. 16, 18:50 UT
    
         The Minor Planet Electronic Circulars contain information on unusual
             minor planets and routine data on comets.  They are published
       on behalf of Commission 20 of the International Astronomical Union by the
              Minor Planet Center, Smithsonian Astrophysical Observatory,
                              Cambridge, MA 02138, U.S.A.
    
                 Prepared using the Tamkin Foundation Computer Network
    
                                  MPC@CFA.HARVARD.EDU
                URL http://www.minorplanetcenter.net/    ISSN 1523-6714
    
                                       2013 PO43
    
    Observations:
         K13P43O* C2013 08 14.50544 23 25 12.702-07 22 51.33         20.3 wLEQ004F51
         K13P43O  C2013 08 14.51950 23 25 12.299-07 22 19.06         20.3 wLEQ004F51
         K13P43O  C2013 08 14.52016 23 25 12.283-07 22 17.48         20.3 wLEQ004F51
         K13P43O  C2013 08 14.53355 23 25 11.902-07 21 46.55         20.5 wLEQ004F51
         K13P43O  C2013 08 14.53421 23 25 11.887-07 21 45.03         20.6 wLEQ004F51
         K13P43O  C2013 08 14.54778 23 25 11.507-07 21 13.62         20.6 wLEQ004F51
         K13P43O  C2013 08 14.54844 23 25 11.488-07 21 12.15         20.6 wLEQ004F51
         K13P43O KC2013 08 15.26373923 24 59.89 -06 53 22.9          20.5  qEQ004W85
         K13P43O KC2013 08 15.26993123 24 59.71 -06 53 08.7          20.4  qEQ004W85
         K13P43O KC2013 08 15.27611823 24 59.52 -06 52 54.4          20.5  qEQ004W85
         K13P43O KC2013 08 15.28301523 24 59.81 -06 53 13.1          20.3 VuEQ004H21
         K13P43O KC2013 08 15.28763523 24 59.69 -06 53 03.1          20.4 VuEQ004H21
         K13P43O KC2013 08 15.29255323 24 59.54 -06 52 51.5          20.5 VuEQ004H21
         K13P43O KC2013 08 15.30207323 24 59.30 -06 52 30.0          20.4 VuEQ004H21
         K13P43O KC2013 08 15.98393 23 24 46.55 -06 26 34.3          20.3 VqEQ004595
         K13P43O KC2013 08 16.01256 23 24 45.73 -06 25 29.0          20.0 VqEQ004595
         K13P43O KC2013 08 16.02841723 24 45.61 -06 24 52.5          20.4 VuEQ004I93
         K13P43O KC2013 08 16.04025823 24 45.26 -06 24 25.4          20.4 VuEQ004I93
         K13P43O KC2013 08 16.05219723 24 44.89 -06 23 58.5          20.7 VuEQ004I93
         K13P43O |C2013 08 16.28506 23 24 39.76 -06 14 31.9          20.5 VuEQ004807
         K13P43O |C2013 08 16.28760 23 24 39.67 -06 14 26.2          20.5 VuEQ004807
         K13P43O |C2013 08 16.29014 23 24 39.56 -06 14 20.5          20.4 VuEQ004807
         K13P43O |C2013 08 16.29266 23 24 39.49 -06 14 15.0          20.5 VuEQ004807
         K13P43O |C2013 08 16.29516 23 24 39.43 -06 14 09.1          20.5 VuEQ004807
    
    Observer details:
    595 Farra d'Isonzo.  Observer E. Pettarin.  0.61-m f/4.0 reflector + CCD.
    807 Cerro Tololo.  Observers T. Linder, R. Holmes.  0.41-m f/11
        Ritchey-Chretien + CCD.
    F51 Pan-STARRS 1, Haleakala.  Observers N. Primak, A. Schultz. T. Goggia,
        M. Willman.  Measurer PS1 Science Consortium.  1.8-m Ritchey-Chretien
        + CCD.
    H21 Astronomical Research Observatory, Westfield.  Observer R. Holmes.
        Measurers T. Linder, S. Foglia, L. Buzzi, T. Vorobjov.  0.61-m f/4.0
        astrograph + CCD.
    I93 St Pardon de Conques.  Observer F. Losse.  0.40-m f/3.7 reflector + CCD.
    W85 Cerro Tololo-LCOGT A.  Observer T. Lister.  1.0-m f/8 Ritchey-Chretien
        + CCD.
    
    Orbital elements:
    2013 PO43                                                Earth MOID = 0.2493 AU
    Epoch 2013 Apr. 18.0 TT = JDT 2456400.5                 MPC
    M 329.31948              (2000.0)            P               Q
    n   0.30486434     Peri.  340.75573     +0.67982127     +0.72913039
    a   2.1864101      Node   331.90316     -0.64901468     +0.54809093
    e   0.4251645      Incl.    9.63377     -0.34150108     +0.40983558
    P   3.23           H   21.5           G   0.15           U   7
    Residuals in seconds of arc
    130814 F51  0.1+  0.0     130815 W85  0.0   0.0     130816 I93  0.0   0.0
    130814 F51  0.0   0.1-    130815 W85  0.1-  0.1+    130816 I93  0.0   0.2+
    130814 F51  0.0   0.1-    130815 H21  0.1-  0.3+    130816 I93  0.3-  0.1-
    130814 F51  0.0   0.0     130815 H21  0.0   0.3-    130816 807  0.3+  0.1+
    130814 F51  0.0   0.0     130815 H21  0.2-  0.0     130816 807  0.1+  0.1+
    130814 F51  0.0   0.1+    130815 H21  0.3+  0.2-    130816 807  0.3-  0.0
    130814 F51  0.0   0.1+    130815 595  0.0   0.0     130816 807  0.1-  0.2-
    130815 W85  0.0   0.0     130816 595  0.2+  0.1+    130816 807  0.2+  0.0
    
    Ephemeris:
    2013 PO43                a,e,i = 2.19, 0.43, 10                  q = 1.2568
    Date    TT    R. A. (2000) Decl.     Delta      r     Elong.  Phase     V
    2013 07 17    23 07 46.3 -25 04 11   0.3236  1.2613   133.6    35.7    21.0
    ...
    2013 08 01    23 23 32.0 -16 07 47   0.2914  1.2576   142.1    29.8    20.6
    ...
    2013 08 09    23 25 51.2 -10 56 32   0.2833  1.2629   147.9    25.2    20.4
    ...
    2013 08 15    23 25 04.4 -07 03 42   0.2819  1.2701   152.8    21.4    20.3
    2013 08 16    23 24 45.8 -06 25 35   0.2821  1.2716   153.6    20.7    20.3
    2013 08 17    23 24 24.3 -05 47 47   0.2825  1.2731   154.5    20.0    20.3
    ...
    2013 08 23    23 21 24.1 -02 09 31   0.2870  1.2840   159.5    16.0    20.2
    ...
    2013 08 31    23 15 44.8 +02 08 51   0.3003  1.3023   165.5    11.2    20.2
    ...
    2013 09 15    23 04 36.1 +07 59 49   0.3487  1.3478   167.1     9.6    20.5
    
    A. U. Tomatic                (C) Copyright 2013 MPC           M.P.E.C. 2013-Q04
    

    Read MPEC 2013-Q03 Read MPEC 2013-Q05


    MPEC number:

    Enter an MPEC number in one of the following forms:

    • 1997-B01 (the full form)
    • J97B01 (the packed version of the full form)
    • B01 (the abbreviated form)